Weather History for KNUQ - March, 2014

Change the Weather History Date:

Wednesday, March 12, 2014

  Actual Average Record
Temperature  
Mean Temperature 67 °F 56 °F  
Max Temperature 77 °F 65 °F 80 °F (2007)
Min Temperature 56 °F 47 °F 33 °F (1950)
Degree Days  
Heating Degree Days 0    
Month to date heating degree days 50  
Since 1 July heating degree days 1508  
Cooling Degree Days 2    
Month to date cooling degree days 4  
Year to date cooling degree days 4  
Growing Degree Days 15 (Base 50)    
Moisture  
Dew Point 29 °F    
Average Humidity 28    
Maximum Humidity 40    
Minimum Humidity 16    
Precipitation  
Precipitation 0.00 in 0.08 in 0.95 in (1968)
Month to date precipitation 0.40 1.01  
Year to date precipitation 3.24 6.83  
Since 1 July precipitation 4.50  
Sea Level Pressure  
Sea Level Pressure 30.05 in    
Wind  
Wind Speed 9 mph (NNE)    
Max Wind Speed 20 mph    
Max Gust Speed 29 mph    
Visibility 10 miles    
Events      
T = Trace of Precipitation, MM = Missing Value Source: NWS Daily Summary

Daily Weather History Graph

Daily Weather History Graph

Search for Another Location

Airport or City:

Trip Planner

Search our weather history database for the weather conditions in past years. The results will help you decide how hot, cold, wet, or windy it might be!

Date:

Astronomy

Mar. 12, 2014 Rise Set
Actual Time 7:23 AM PDT 7:12 PM PDT
Civil Twilight 6:57 AM PDT 7:38 PM PDT
Nautical Twilight 6:27 AM PDT 8:09 PM PDT
Astronomical Twilight 5:56 AM PDT 8:39 PM PDT
Moon 3:51 PM PDT (3/12) 4:54 AM PDT (3/12)
Length of Visible Light 12h 41m
Length of Day
11h 49m
Waxing Gibbous, 86% of the Moon is Illuminated
Mar 12
Waxing Gibbous
Mar 16
Full
Mar 23
Last Quarter
Mar 30
New
Apr 7
First Quarter

Hourly Weather History & Observations

Time (PDT) Temp. Dew Point Humidity Pressure Visibility Wind Dir Wind Speed Gust Speed Precip Events Conditions
12:03 AM 62.6 °F 21.2 °F 20% 30.04 in 10.0 mi North 15.0 mph 20.7 mph N/A   Clear
12:56 AM 61.0 °F 21.9 °F 22% 30.05 in 10.0 mi Calm Calm - N/A   Clear
1:56 AM 62.1 °F 19.9 °F 20% 30.04 in 10.0 mi NNE 11.5 mph - N/A   Clear
2:56 AM 61.0 °F 23.0 °F 23% 30.03 in 10.0 mi NNE 11.5 mph 18.4 mph N/A   Clear
3:56 AM 57.9 °F 28.0 °F 32% 30.02 in 10.0 mi Calm Calm - N/A   Clear
4:56 AM 59.0 °F 26.1 °F 28% 30.01 in 10.0 mi ENE 11.5 mph 19.6 mph N/A   Clear
5:56 AM 57.9 °F 26.1 °F 30% 30.03 in 10.0 mi NE 17.3 mph 23.0 mph N/A   Clear
6:56 AM 57.0 °F 30.0 °F 36% 30.05 in 10.0 mi NNE 11.5 mph - N/A   Clear
7:56 AM 55.9 °F 30.0 °F 37% 30.06 in 10.0 mi NNE 10.4 mph - N/A   Clear
8:56 AM 59.0 °F 30.0 °F 33% 30.09 in 10.0 mi Calm Calm - N/A   Clear
9:56 AM 62.1 °F 30.0 °F 30% 30.11 in 10.0 mi NNE 9.2 mph 18.4 mph N/A   Clear
10:56 AM 64.9 °F 28.9 °F 26% 30.11 in 10.0 mi NNE 17.3 mph 26.5 mph N/A   Clear
11:56 AM 70.0 °F 30.0 °F 23% 30.10 in 10.0 mi NE 16.1 mph - N/A   Clear
12:56 PM 72.0 °F 30.0 °F 21% 30.09 in 10.0 mi Variable 6.9 mph - N/A   Clear
1:56 PM 75.0 °F 30.0 °F 19% 30.07 in 10.0 mi North 13.8 mph - N/A   Clear
2:56 PM 75.9 °F 27.0 °F 16% 30.04 in 10.0 mi NNE 10.4 mph - N/A   Clear
3:56 PM 75.9 °F 28.9 °F 18% 30.03 in 10.0 mi NNE 15.0 mph - N/A   Clear
4:56 PM 75.9 °F 28.9 °F 18% 30.01 in 10.0 mi NNE 12.7 mph - N/A   Clear
5:56 PM 75.0 °F 30.0 °F 19% 30.01 in 10.0 mi North 10.4 mph - N/A   Clear
6:56 PM 71.1 °F 30.9 °F 23% 30.00 in 10.0 mi NNE 15.0 mph - N/A   Clear
7:56 PM 70.0 °F 28.0 °F 21% 30.01 in 10.0 mi NNE 13.8 mph 23.0 mph N/A   Clear
8:56 PM 66.0 °F 35.1 °F 32% 30.04 in 10.0 mi NNW 4.6 mph - N/A   Clear
9:56 PM 64.0 °F 35.1 °F 34% 30.05 in 10.0 mi West 4.6 mph - N/A   Clear
10:56 PM 61.0 °F 35.1 °F 38% 30.06 in 10.0 mi Calm Calm - N/A   Clear
11:56 PM 59.0 °F 36.0 °F 42% 30.05 in 10.0 mi Calm Calm - N/A   Clear